THORAD AGENA D DEB, 4991

Orbit data source: Space-Track

THORAD AGENA D DEB, 4991 is space debris in SSO originally from a launch on Wed, 08 Apr 1970 UTC launched from the Air Force Western Test Range (AFWTR). Debris objects in space refer to the collection of defunct objects orbiting the Earth. Examples of debris include non-operational satellites, rocket bodies, and fragments generated from explosions, collisions, or faulty payload assembly.

Loading next visibility...
Identifier
4991, 1970-025HM
Orbit
SSO
Country
Flag of USUS
Related business
Manufacturer
Unknown
Mission
Spacecraft
Bus & Motor
Unknown
Mass
Unknown
Launch date (UTC)
1970-04-08 (56 years ago)
Launch vehicle
Unknown
Launch site
Air Force Western Test Range (AFWTR)
Object type
Payload
Rocket body
Debris
Shape & HBR
Unknown shape, 0.1 m
Radar Cross Section
Small (<0.1 m²)

Expand to show TLE details & history
Last TLE update: 15 hours ago

TLE from 15 hours ago
0 THORAD AGENA D DEB
1 04991U 70025HM  25301.45255655 -.00000010  00000-0  55891-4 0  9999
2 04991 100.2267 118.8279 0019957 293.6517 121.6215 13.53489915743148
Epoch: 2025-10-28T10:51Z
TLE epoch observation values (Epoch: 2025-10-28T10:51:40.885Z)
Latitude
54.26451°
Longitude
-95.57731°
Altitude
1,076.077 km
Speed
7.315 km/s
True Right ascension
06h 57m 31s
True Declination
54° 06' 30"
Sunlit
Object was in daylight at epoch
Visualization orbit readout
Latitude
Unknown
Longitude
Unknown
Altitude
Unknown
Speed
Unknown
Apparent Right ascension
Unknown
Apparent Declination
Unknown
Sunlit
N/A
Visualization observer readout
Local Sidereal Time
21:30:03
Azimuth
Unknown
Elevation
Unknown
Doppler factor
Unknown
Orbital elements
Apogee altitude
1,071.608 km
Perigee altitude
1,041.933 km
Semi-major axis
7,434.908 km
Eccentricity
0.002
Inclination
100.2267°
RAAN
118.8279°
Arg. of periapsis
293.6517°
True anomaly
121.81598°
Mean anomaly
121.6215°
Eccentric anomaly
121.71877°
Mean motion
3.38555 °/min
Orbital period
106.33 mins
BSTAR
0.000055891
Loading maneuver chart data...
Computing Atmospheric mass density...

Documentation

Showing up to 5 results
|